Regional Weather Roundup
Issued by NWS

Home | Current Version | Previous Version | Text Only | Print | Product List | Glossary On
Versions: 1 2 3 4 5 6 7 8 9 10 11 12 13 14 15 16 17 18 19 20 21 22 23 24 25 26 27 28 29 30 31 32 33 34 35 36 37 38 39 40 41 42 43 44 45 46 47 48 49 50
280
ASUS43 KDMX 240408
RWRIA

WEATHER ROUNDUP FOR IOWA
NATIONAL WEATHER SERVICE DES MOINES IA
1100 PM CDT TUE AUG 23 2016

NOTE: "FAIR" INDICATES FEW OR NO CLOUDS BELOW 12,000 FEET WITH NO
SIGNIFICANT WEATHER AND/OR OBSTRUCTIONS TO VISIBILITY.

* - THESE STATIONS ARE NOT NWS STATIONS...THUS NOT UNDER NWS
QUALITY CONTROL.  THEY ALSO DO NOT REPORT WEATHER SUCH
AS PRECIPITATION OR FOG.

IAZ001>003-012>014-020>022-031>034-043>046-240500-
   NORTHWEST IOWA

CITY           SKY/WX    TMP DP  RH WIND       PRES   REMARKS
CARROLL *      CLOUDY    77  73  88 W10G32    29.85S
CHEROKEE *     CLOUDY    72  69  92 SW5       29.83F
DENISON *      CLOUDY    73  72  94 SW12      29.84S
LE MARS *      CLOUDY    72  64  78 S9        29.82F
ORANGE CITY *  CLOUDY    72  68  88 S7        29.83F
SHELDON *      CLOUDY    73  72  94 SW10G16   29.81F
SIOUX CITY     CLOUDY    72  63  73 S10       29.82F
SPENCER        CLOUDY    72  70  93 S8        29.84F FOG
STORM LAKE *   CLOUDY    75  73  94 S7        29.85S
$$

IAZ055>058-069>071-079>083-090>094-240500-
   SOUTHWEST IOWA

CITY           SKY/WX    TMP DP  RH WIND       PRES   REMARKS
ATLANTIC *     CLOUDY    77  72  83 S13       29.84F
AUDUBON *      LGT RAIN  75  72  88 S8G17     29.87F
CLARINDA *       N/A     79  73  83 MISG      29.88F HX  82
COUNCIL BLFS * HVY RAIN  66  64  94 N14G21    29.87F VSB 1/2
CRESTON *      CLOUDY    75  73  94 S14       29.92F
HARLAN  *      LGT RAIN  75  72  88 W14       29.89F
LAMONI         CLOUDY    75  74  96 S14       29.93S
RED OAK *      CLOUDY    79  72  78 S14G21    29.84F HX  82
SHENANDOAH *   CLOUDY    79 -17   2 S18G29    29.83F
$$

IAZ047>049-059>061-072>074-084-240500-
   CENTRAL IOWA

CITY           SKY/WX    TMP DP  RH WIND       PRES   REMARKS
AMES           CLOUDY    76  74  93 S12       29.88S
ANKENY *         N/A    N/A N/A N/A MISG        N/A
BOONE *          N/A     75  73  94 S9        29.87S
CHARITON *       N/A     75  73  94 MISG      29.93S
DES MOINES     MOCLDY    77  73  87 S15       29.88F
GRINNELL*      CLOUDY    74  70  87 S14G20    29.93F
KNOXVILLE *    CLOUDY    75  72  88 S13       29.91F
MARSHALLTOWN   CLOUDY    75  72  90 S14       29.90F
NEWTON *       CLOUDY    75  73  94 S15       29.90F
PELLA *        CLOUDY    75  71  86 S10       29.93F
PERRY *          N/A     76  75  97 S13G22    29.85F
$$

IAZ004>006-015-016-023>025-035-036-240500-
   NORTH CENTRAL IOWA

CITY           SKY/WX    TMP DP  RH WIND       PRES   REMARKS
ALGONA *       CLOUDY    73  72  94 S13       29.84S
ESTHERVILLE    CLOUDY    72  72 100 S10       29.83F
FORT DODGE *   CLOUDY    75  70  83 S12G18    29.87S
MASON CITY     TSTM      69  68  96 SE8       29.86F FOG
FOREST CITY *    N/A     68  68 100 MISG        N/A
WEBSTER CITY * CLOUDY    75  73  94 S15       29.85S
IOWA FALLS *   CLOUDY    75  71  88 S14G22    29.90R
$$

IAZ007>011-017>019-026>030-037>042-050>054-066-240500-
   NORTHEAST IOWA

CITY           SKY/WX    TMP DP  RH WIND       PRES   REMARKS
CEDAR RAPIDS   CLOUDY    73  72  96 S13G23    29.95F
CHARLES CITY * CLOUDY    68  68 100 E9        29.91S
CLINTON *      CLOUDY    72  69  90 S14       30.03F
DECORAH *      HVY RAIN  64  64 100 E5        29.94S VSB 3/4
DUBUQUE        CLOUDY    71  68  90 S15G23    29.99S
MONTICELLO *   CLOUDY    73  70  88 S16       29.96F
OELWEIN *      CLOUDY    73  70  88 S17G26    29.93S
WATERLOO       CLOUDY    74  70  87 S21G26    29.89F
$$

IAZ064-065-067-068-078-240500-
   EAST CENTRAL IOWA

CITY           SKY/WX    TMP DP  RH WIND       PRES   REMARKS
DAVENPORT      CLOUDY    73  68  84 S15G22    30.02F
IOWA CITY      CLOUDY    73  70  90 S14G22    29.98F
MT. PLEASANT * CLOUDY    74  74  98 S10G20    30.00S
MUSCATINE *    CLOUDY    73  68  83 S13       30.00F
QUAD CITIES    CLOUDY    74  67  78 S10G20    30.02F
$$

IAZ062-063-075>077-085>089-095>099-240500-
   SOUTHEAST IOWA

CITY           SKY/WX    TMP DP  RH WIND       PRES   REMARKS
BURLINGTON     CLOUDY    72  70  93 S13       30.02S
FAIRFIELD *    CLOUDY    73  70  88 S14       29.97F
FORT MADISON * CLOUDY    72  70  94 SE12G17   30.03R
KEOKUK *       CLOUDY    73  70  88 SE8       30.02R
OSKALOOSA *      N/A     72  70  94 S10       29.96S
CENTERVILLE *    N/A     73  72  94 SE7       29.97F
OTTUMWA        CLEAR     73  70  90 S8        29.96S
WASHINGTON *   CLOUDY    72  72 100 S14       29.99F
$$

ABBREVIATIONS USED IN REMARKS
   TC - TEMPERATURES IN CELSIUS
  WCI - WIND CHILL INDEX
   HX - HEAT INDEX
  VSB - VISIBILITY
$$





USA.gov is the U.S. government's official web portal to all federal, state and local government web resources and services.